Location: Mentone
(34.5413°N, 85.5351°W)
Time: 22:35:25
(UTC-05:00)

Uosat F - Visible Passes

Search period start: 25 October 2014 00:00
Search period end: 03 November 2014 23:00
Orbit: 752 x 761 km, 98.7° (Epoch: 25 October)

Date Brightness Start Highest point End Pass type
(mag) Time Alt. Az. Time Alt. Az. Time Alt. Az.
25 Oct 13.1 04:22:34 10° NE 04:26:45 26° E 04:30:55 10° SSE visible
25 Oct 11.8 06:01:06 10° N 06:05:28 30° WNW 06:09:49 10° SW visible
26 Oct 10.9 05:21:28 10° N 05:26:31 76° WNW 05:31:32 10° SSW visible
27 Oct 12.2 04:42:34 10° NNE 04:47:21 42° E 04:52:05 10° S visible
27 Oct 12.4 06:22:15 10° NNW 06:25:46 19° WNW 06:29:17 10° WSW visible
28 Oct 13.7 04:04:49 10° NE 04:07:58 16° E 04:11:05 10° SE visible
28 Oct 11.3 05:42:07 10° N 05:46:56 46° WNW 05:51:43 10° SW visible
29 Oct 11.3 05:02:50 10° NNE 05:07:52 69° ESE 05:12:52 10° S visible
30 Oct 13.0 04:24:22 10° NE 04:28:36 27° E 04:32:48 10° SSE visible
30 Oct 11.9 06:02:58 10° N 06:07:17 29° WNW 06:11:35 10° SW visible
31 Oct 10.9 05:23:18 10° N 05:28:20 74° WNW 05:33:20 10° SSW visible
01 Nov 12.2 04:44:22 10° NNE 04:49:10 43° E 04:53:55 10° S visible
01 Nov 12.4 06:24:08 10° NNW 06:27:35 19° WNW 06:31:01 10° WSW visible
02 Nov 13.7 03:06:34 10° NE 03:09:47 17° E 03:12:59 10° SE visible
02 Nov 11.3 04:43:56 10° N 04:48:44 45° WNW 04:53:30 10° SW visible
03 Nov 11.3 04:04:38 10° NNE 04:09:41 71° ESE 04:14:41 10° S visible
